Allentown, PA

10:17 AM EDT on October 22, 2017 (GMT -0400)
Lehigh Valley International

Weather History for KABE - June, 2013

Change the Weather History Date:

Thursday, June 27, 2013

  Actual Average Record
Temperature  
Mean Temperature 78 °F 72 °F  
Max Temperature 89 °F 83 °F 100 °F (1966)
Min Temperature 67 °F 61 °F 49 °F (2004)
Degree Days  
Heating Degree Days 0 0  
Month to date heating degree days 9 32  
Since 1 June heating degree days 9 32  
Since 1 July heating degree days 5404 5800  
Cooling Degree Days 13 7  
Month to date cooling degree days 159 133  
Year to date cooling degree days 231 178  
Since 1 June cooling degree days 159 133  
Growing Degree Days 28 (Base 50)    
Moisture  
Dew Point 69 °F    
Average Humidity 72    
Maximum Humidity 93    
Minimum Humidity 51    
Precipitation  
Precipitation 0.33 in 0.14 in 2.70 in (1938)
Month to date precipitation 6.81 3.86  
Year to date precipitation 20.36 20.68  
Snow  
Snow 0.00 in 0.00 in 0.00 in (2002)
Month to date snowfall 0.0 0.0  
Since 1 June snowfall 0.0 0.0  
Since 1 July snowfall 21.4 32.9  
Snow Depth 0.00 in    
Sea Level Pressure  
Sea Level Pressure 29.66 in    
Wind  
Wind Speed 6 mph (SSE)    
Max Wind Speed 18 mph    
Max Gust Speed 24 mph    
Visibility 8 miles    
Events Rain , Thunderstorm    
T = Trace of Precipitation, MM = Missing Value Source: NWS Daily Summary

Daily Weather History Graph

Daily Weather History Graph

Search for Another Location

Airport or City:

Trip Planner

Search our weather history database for the weather conditions in past years. The results will help you decide how hot, cold, wet, or windy it might be!

Date:

Astronomy

Jun. 27, 2013 Rise Set
Actual Time 5:32 AM EDT 8:36 PM EDT
Civil Twilight 4:59 AM EDT 9:10 PM EDT
Nautical Twilight 4:17 AM EDT 9:52 PM EDT
Astronomical Twilight 3:27 AM EDT 10:42 PM EDT
Moon 11:30 PM EDT (6/27) 10:32 AM EDT (6/27)
Length of Visible Light 16h 10m
Length of Day
15h 04m
Waning Gibbous, 76% of the Moon is Illuminated
Jun 27
Waning Gibbous
Jun 30
Last Quarter
Jul 8
New
Jul 15
First Quarter
Jul 22
Full

Hourly Weather History & Observations

Time (EDT) Temp. Heat Index Dew Point Humidity Pressure Visibility Wind Dir Wind Speed Gust Speed Precip Events Conditions
12:51 AM 73.9 °F - 66.9 °F 79% 29.81 in 10.0 mi Calm Calm - N/A   Overcast
1:51 AM 70.0 °F - 66.9 °F 90% 29.80 in 8.0 mi North 4.6 mph - N/A   Clear
2:51 AM 70.0 °F - 66.9 °F 90% 29.80 in 7.0 mi Calm Calm - N/A   Partly Cloudy
3:51 AM 68.0 °F - 66.0 °F 93% 29.79 in 7.0 mi SW 3.5 mph - N/A   Mostly Cloudy
4:51 AM 66.9 °F - 64.9 °F 93% 29.80 in 7.0 mi NNW 3.5 mph - N/A   Clear
5:51 AM 68.0 °F - 66.0 °F 93% 29.81 in 4.0 mi Calm Calm - N/A   Clear
6:51 AM 70.0 °F - 66.9 °F 90% 29.81 in 7.0 mi Calm Calm - N/A   Clear
7:51 AM 73.0 °F - 68.0 °F 84% 29.81 in 7.0 mi Calm Calm - N/A   Clear
8:51 AM 77.0 °F - 68.0 °F 74% 29.79 in 8.0 mi Calm Calm - N/A   Clear
9:51 AM 81.0 °F 83.8 °F 68.0 °F 65% 29.78 in 10.0 mi Calm Calm - N/A   Clear
10:51 AM 82.9 °F 85.4 °F 66.9 °F 58% 29.76 in 10.0 mi ENE 4.6 mph - N/A   Mostly Cloudy
11:51 AM 84.0 °F 86.5 °F 66.9 °F 56% 29.75 in 10.0 mi Variable 4.6 mph - N/A   Scattered Clouds
12:51 PM 86.0 °F 88.8 °F 66.9 °F 53% 29.73 in 10.0 mi ESE 8.1 mph - N/A   Mostly Cloudy
1:51 PM 87.1 °F 90.6 °F 68.0 °F 53% 29.71 in 10.0 mi Variable 6.9 mph - N/A   Partly Cloudy
2:51 PM 87.1 °F 90.6 °F 68.0 °F 53% 29.69 in 10.0 mi SSE 10.4 mph - N/A   Mostly Cloudy
3:51 PM 86.0 °F 90.1 °F 69.1 °F 57% 29.67 in 10.0 mi ESE 12.7 mph - N/A   Scattered Clouds
4:51 PM 88.0 °F 92.1 °F 69.1 °F 53% 29.62 in 10.0 mi ESE 10.4 mph - N/A   Clear
5:51 PM 84.9 °F 89.4 °F 70.0 °F 61% 29.59 in 10.0 mi ESE 12.7 mph - N/A   Mostly Cloudy
6:51 PM 79.0 °F - 70.0 °F 74% 29.58 in 2.0 mi ESE 11.5 mph 20.7 mph 0.01 in Rain , Thunderstorm Thunderstorms and Rain
7:33 PM 75.2 °F - 71.6 °F 89% 29.56 in 5.0 mi ENE 17.3 mph 21.9 mph 0.23 in Rain Light Rain
7:49 PM 75.2 °F - 71.6 °F 89% 29.55 in 10.0 mi SE 11.5 mph 21.9 mph 0.23 in   Overcast
7:51 PM 75.0 °F - 71.1 °F 87% 29.55 in 10.0 mi ESE 13.8 mph 21.9 mph 0.23 in Rain Light Rain
7:58 PM 73.4 °F - 71.6 °F 94% 29.55 in 10.0 mi SE 9.2 mph 20.7 mph 0.00 in Rain Light Rain
8:06 PM 73.4 °F - 71.6 °F 94% 29.55 in 9.0 mi SE 9.2 mph 20.7 mph 0.00 in Rain Light Rain
8:20 PM 73.4 °F - 71.6 °F 94% 29.55 in 10.0 mi SE 12.7 mph 18.4 mph 0.00 in   Overcast
8:40 PM 73.4 °F - 71.6 °F 94% 29.54 in 10.0 mi SE 10.4 mph - 0.00 in   Overcast
8:51 PM 73.9 °F - 71.1 °F 91% 29.53 in 9.0 mi SSE 8.1 mph - 0.00 in   Overcast
9:18 PM 71.6 °F - 69.8 °F 94% 29.55 in 4.0 mi West 12.7 mph - 0.01 in Rain Rain
9:30 PM 71.6 °F - 69.8 °F 94% 29.55 in 2.5 mi West 12.7 mph 19.6 mph 0.04 in Rain Rain
9:41 PM 71.6 °F - 69.8 °F 94% 29.56 in 3.0 mi WSW 11.5 mph 19.6 mph 0.08 in Rain Rain
9:51 PM 71.1 °F - 69.1 °F 93% 29.55 in 10.0 mi SW 10.4 mph - 0.09 in Rain Light Rain
10:29 PM 71.6 °F - 69.8 °F 94% 29.56 in 10.0 mi SW 10.4 mph - 0.00 in   Overcast
10:51 PM 70.0 °F - 69.1 °F 97% 29.56 in 10.0 mi SW 11.5 mph - 0.00 in   Mostly Cloudy
11:51 PM 71.1 °F - 69.1 °F 93% 29.55 in 10.0 mi SW 6.9 mph - N/A   Overcast